Time,TemperatureF,DewpointF,PressureIn,WindDirection,WindDirectionDegrees,WindSpeedMPH,WindSpeedGustMPH,Humidity,HourlyPrecipIn,Conditions,Clouds,dailyrainin,SoftwareType,DateUTC
2013-02-27 00:02:00,58.0,-99.9,29.61,SSW,192,7.0,16.0,-999,-99.99,,,-99.99,,2013-02-27 05:02:00,
2013-02-27 00:12:00,58.0,-99.9,29.61,South,186,7.0,13.0,-999,-99.99,,,-99.99,,2013-02-27 05:12:00,
2013-02-27 00:22:00,59.0,-99.9,29.61,SSW,196,9.0,14.0,-999,-99.99,,,-99.99,,2013-02-27 05:22:00,
2013-02-27 00:32:00,58.0,-99.9,29.61,SSW,200,11.0,15.0,-999,-99.99,,,-99.99,,2013-02-27 05:32:00,
2013-02-27 00:42:00,58.0,-99.9,29.60,SSW,205,12.0,16.0,-999,-99.99,,,-99.99,,2013-02-27 05:42:00,
2013-02-27 00:52:00,57.0,-99.9,29.61,SSW,212,12.0,15.0,-999,-99.99,,,-99.99,,2013-02-27 05:52:00,
2013-02-27 01:02:00,56.0,-99.9,29.61,SSW,209,13.0,16.0,-999,-99.99,,,-99.99,,2013-02-27 06:02:00,
2013-02-27 01:11:00,56.0,-99.9,29.61,SSW,208,12.0,15.0,-999,-99.99,,,-99.99,,2013-02-27 06:11:00,
2013-02-27 01:22:00,55.0,-99.9,29.62,SSW,207,11.0,15.0,-999,-99.99,,,-99.99,,2013-02-27 06:22:00,
2013-02-27 01:33:00,55.0,-99.9,29.62,SSW,209,11.0,15.0,-999,-99.99,,,-99.99,,2013-02-27 06:33:00,
2013-02-27 01:42:00,55.0,-99.9,29.62,SW,215,11.0,14.0,-999,-99.99,,,-99.99,,2013-02-27 06:42:00,
2013-02-27 01:52:00,55.0,-99.9,29.62,SW,214,11.0,14.0,-999,-99.99,,,-99.99,,2013-02-27 06:52:00,
2013-02-27 02:01:00,55.0,-99.9,29.62,SW,222,10.0,15.0,-999,-99.99,,,-99.99,,2013-02-27 07:01:00,
2013-02-27 02:12:00,55.0,-99.9,29.61,SW,223,12.0,15.0,-999,-99.99,,,-99.99,,2013-02-27 07:12:00,
2013-02-27 02:22:00,56.0,-99.9,29.61,SW,234,12.0,16.0,-999,-99.99,,,-99.99,,2013-02-27 07:22:00,
2013-02-27 02:32:00,56.0,-99.9,29.60,SW,236,11.0,15.0,-999,-99.99,,,-99.99,,2013-02-27 07:32:00,
2013-02-27 02:42:00,55.0,-99.9,29.61,SW,232,10.0,14.0,-999,-99.99,,,-99.99,,2013-02-27 07:42:00,
2013-02-27 02:52:00,55.0,-99.9,29.61,WSW,238,11.0,15.0,-999,-99.99,,,-99.99,,2013-02-27 07:52:00,
2013-02-27 03:01:00,55.0,-99.9,29.60,WSW,240,8.0,11.0,-999,-99.99,,,-99.99,,2013-02-27 08:01:00,
2013-02-27 03:12:00,55.0,-99.9,29.60,SW,233,8.0,12.0,-999,-99.99,,,-99.99,,2013-02-27 08:12:00,
2013-02-27 03:22:00,55.0,-99.9,29.61,SW,231,9.0,12.0,-999,-99.99,,,-99.99,,2013-02-27 08:22:00,
2013-02-27 03:32:00,54.0,-99.9,29.62,SW,234,9.0,15.0,-999,-99.99,,,-99.99,,2013-02-27 08:32:00,
2013-02-27 03:42:00,54.0,-99.9,29.61,SW,224,10.0,14.0,-999,-99.99,,,-99.99,,2013-02-27 08:42:00,
2013-02-27 03:53:00,53.0,-99.9,29.61,SW,230,6.0,11.0,-999,-99.99,,,-99.99,,2013-02-27 08:53:00,
2013-02-27 04:02:00,52.0,-99.9,29.61,SW,223,6.0,8.0,-999,-99.99,,,-99.99,,2013-02-27 09:02:00,
2013-02-27 04:12:00,52.0,-99.9,29.62,SW,227,6.0,8.0,-999,-99.99,,,-99.99,,2013-02-27 09:12:00,
2013-02-27 04:22:00,53.0,-99.9,29.61,WSW,254,7.0,9.0,-999,-99.99,,,-99.99,,2013-02-27 09:22:00,
2013-02-27 04:32:00,53.0,-99.9,29.62,WSW,244,6.0,9.0,-999,-99.99,,,-99.99,,2013-02-27 09:32:00,
2013-02-27 04:42:00,53.0,-99.9,29.63,WSW,237,7.0,9.0,-999,-99.99,,,-99.99,,2013-02-27 09:42:00,
2013-02-27 04:52:00,53.0,-99.9,29.63,WSW,238,6.0,8.0,-999,-99.99,,,-99.99,,2013-02-27 09:52:00,
2013-02-27 05:01:00,52.0,-99.9,29.63,SW,216,5.0,6.0,-999,-99.99,,,-99.99,,2013-02-27 10:01:00,
2013-02-27 05:12:00,51.0,-99.9,29.64,SW,215,5.0,7.0,-999,-99.99,,,-99.99,,2013-02-27 10:12:00,
2013-02-27 05:22:00,51.0,-99.9,29.64,SW,219,5.0,6.0,-999,-99.99,,,-99.99,,2013-02-27 10:22:00,
2013-02-27 05:32:00,51.0,-99.9,29.65,SW,228,6.0,9.0,-999,-99.99,,,-99.99,,2013-02-27 10:32:00,
2013-02-27 05:42:00,51.0,-99.9,29.65,SW,223,6.0,8.0,-999,-99.99,,,-99.99,,2013-02-27 10:42:00,
2013-02-27 05:53:00,51.0,-99.9,29.66,SW,227,6.0,10.0,-999,-99.99,,,-99.99,,2013-02-27 10:53:00,
2013-02-27 06:03:00,51.0,-99.9,29.67,SW,236,8.0,10.0,-999,-99.99,,,-99.99,,2013-02-27 11:03:00,
2013-02-27 06:12:00,52.0,-99.9,29.67,SW,234,7.0,10.0,-999,-99.99,,,-99.99,,2013-02-27 11:12:00,
2013-02-27 06:22:00,51.0,-99.9,29.67,SW,231,8.0,11.0,-999,-99.99,,,-99.99,,2013-02-27 11:22:00,
2013-02-27 06:32:00,51.0,-99.9,29.67,SW,229,8.0,11.0,-999,-99.99,,,-99.99,,2013-02-27 11:32:00,
2013-02-27 06:42:00,51.0,-99.9,29.68,SW,229,9.0,12.0,-999,-99.99,,,-99.99,,2013-02-27 11:42:00,
2013-02-27 06:52:00,51.0,-99.9,29.68,WSW,239,9.0,14.0,-999,-99.99,,,-99.99,,2013-02-27 11:52:00,
2013-02-27 07:02:00,51.0,-99.9,29.69,WSW,242,11.0,15.0,-999,-99.99,,,-99.99,,2013-02-27 12:02:00,
2013-02-27 07:13:00,51.0,-99.9,29.69,WSW,242,11.0,15.0,-999,-99.99,,,-99.99,,2013-02-27 12:13:00,
2013-02-27 07:22:00,51.0,-99.9,29.70,WSW,242,12.0,17.0,-999,-99.99,,,-99.99,,2013-02-27 12:22:00,
2013-02-27 07:33:00,51.0,-99.9,29.70,WSW,238,10.0,16.0,-999,-99.99,,,-99.99,,2013-02-27 12:33:00,
2013-02-27 07:42:00,51.0,-99.9,29.70,SW,234,10.0,14.0,-999,-99.99,,,-99.99,,2013-02-27 12:42:00,
2013-02-27 07:53:00,51.0,-99.9,29.70,SW,227,10.0,14.0,-999,-99.99,,,-99.99,,2013-02-27 12:53:00,
2013-02-27 08:03:00,51.0,-99.9,29.71,SW,219,9.0,15.0,-999,-99.99,,,-99.99,,2013-02-27 13:03:00,
2013-02-27 08:12:00,51.0,-99.9,29.71,SW,224,11.0,14.0,-999,-99.99,,,-99.99,,2013-02-27 13:12:00,
2013-02-27 08:22:00,51.0,-99.9,29.71,SW,228,12.0,15.0,-999,-99.99,,,-99.99,,2013-02-27 13:22:00,
2013-02-27 08:32:00,51.0,-99.9,29.71,SW,229,11.0,16.0,-999,-99.99,,,-99.99,,2013-02-27 13:32:00,
2013-02-27 08:42:00,51.0,-99.9,29.71,SW,221,10.0,14.0,-999,-99.99,,,-99.99,,2013-02-27 13:42:00,
2013-02-27 08:53:00,52.0,-99.9,29.72,SW,227,14.0,22.0,-999,-99.99,,,-99.99,,2013-02-27 13:53:00,
2013-02-27 09:02:00,53.0,-99.9,29.72,WSW,237,15.0,24.0,-999,-99.99,,,-99.99,,2013-02-27 14:02:00,
2013-02-27 09:12:00,53.0,-99.9,29.72,SW,233,17.0,23.0,-999,-99.99,,,-99.99,,2013-02-27 14:12:00,
2013-02-27 09:22:00,52.0,-99.9,29.73,WSW,243,21.0,28.0,-999,-99.99,,,-99.99,,2013-02-27 14:22:00,
2013-02-27 09:32:00,51.0,-99.9,29.73,WSW,251,21.0,28.0,-999,-99.99,,,-99.99,,2013-02-27 14:32:00,
2013-02-27 09:42:00,51.0,-99.9,29.74,WSW,253,22.0,28.0,-999,-99.99,,,-99.99,,2013-02-27 14:42:00,
2013-02-27 09:53:00,51.0,-99.9,29.75,WSW,257,19.0,26.0,-999,-99.99,,,-99.99,,2013-02-27 14:53:00,
2013-02-27 10:02:00,50.0,-99.9,29.75,West,262,19.0,27.0,-999,-99.99,,,-99.99,,2013-02-27 15:02:00,
2013-02-27 10:13:00,50.0,-99.9,29.75,WSW,258,17.0,27.0,-999,-99.99,,,-99.99,,2013-02-27 15:13:00,
2013-02-27 10:23:00,50.0,-99.9,29.76,West,260,19.0,23.0,-999,-99.99,,,-99.99,,2013-02-27 15:23:00,
2013-02-27 10:32:00,49.0,-99.9,29.76,West,268,21.0,24.0,-999,-99.99,,,-99.99,,2013-02-27 15:32:00,
2013-02-27 10:42:00,49.0,-99.9,29.76,West,264,21.0,25.0,-999,-99.99,,,-99.99,,2013-02-27 15:42:00,
2013-02-27 10:52:00,50.0,-99.9,29.76,West,261,17.0,25.0,-999,-99.99,,,-99.99,,2013-02-27 15:52:00,
2013-02-27 11:02:00,49.0,-99.9,29.75,West,266,19.0,23.0,-999,-99.99,,,-99.99,,2013-02-27 16:02:00,
2013-02-27 11:12:00,49.0,-99.9,29.76,West,264,22.0,25.0,-999,-99.99,,,-99.99,,2013-02-27 16:12:00,
2013-02-27 11:22:00,50.0,-99.9,29.77,West,265,17.0,24.0,-999,-99.99,,,-99.99,,2013-02-27 16:22:00,
2013-02-27 11:32:00,50.0,-99.9,29.77,West,260,17.0,23.0,-999,-99.99,,,-99.99,,2013-02-27 16:32:00,
2013-02-27 11:42:00,50.0,-99.9,29.78,West,262,19.0,24.0,-999,-99.99,,,-99.99,,2013-02-27 16:42:00,
2013-02-27 11:52:00,50.0,-99.9,29.77,West,261,18.0,24.0,-999,-99.99,,,-99.99,,2013-02-27 16:52:00,
2013-02-27 12:02:00,50.0,-99.9,29.77,WSW,257,16.0,22.0,-999,-99.99,,,-99.99,,2013-02-27 17:02:00,
2013-02-27 12:11:00,50.0,-99.9,29.77,WSW,257,16.0,22.0,-999,-99.99,,,-99.99,,2013-02-27 17:11:00,
2013-02-27 12:22:00,51.0,-99.9,29.77,WSW,256,17.0,22.0,-999,-99.99,,,-99.99,,2013-02-27 17:22:00,
2013-02-27 12:32:00,51.0,-99.9,29.76,West,259,14.0,20.0,-999,-99.99,,,-99.99,,2013-02-27 17:32:00,
2013-02-27 12:42:00,51.0,-99.9,29.76,WSW,258,16.0,19.0,-999,-99.99,,,-99.99,,2013-02-27 17:42:00,
2013-02-27 12:52:00,51.0,-99.9,29.75,West,259,14.0,19.0,-999,-99.99,,,-99.99,,2013-02-27 17:52:00,
2013-02-27 13:02:00,51.0,-99.9,29.75,West,267,17.0,19.0,-999,-99.99,,,-99.99,,2013-02-27 18:02:00,
2013-02-27 13:11:00,51.0,-99.9,29.75,West,262,13.0,19.0,-999,-99.99,,,-99.99,,2013-02-27 18:11:00,
2013-02-27 13:22:00,51.0,-99.9,29.75,WSW,255,13.0,17.0,-999,-99.99,,,-99.99,,2013-02-27 18:22:00,
2013-02-27 13:32:00,52.0,-99.9,29.75,WSW,253,13.0,17.0,-999,-99.99,,,-99.99,,2013-02-27 18:32:00,
2013-02-27 13:42:00,52.0,-99.9,29.75,WSW,253,13.0,17.0,-999,-99.99,,,-99.99,,2013-02-27 18:42:00,
2013-02-27 13:52:00,53.0,-99.9,29.75,WSW,254,11.0,16.0,-999,-99.99,,,-99.99,,2013-02-27 18:52:00,
2013-02-27 14:02:00,53.0,-99.9,29.75,West,259,12.0,16.0,-999,-99.99,,,-99.99,,2013-02-27 19:02:00,
2013-02-27 14:12:00,53.0,-99.9,29.75,WSW,255,12.0,16.0,-999,-99.99,,,-99.99,,2013-02-27 19:12:00,
2013-02-27 14:22:00,53.0,-99.9,29.75,WSW,256,11.0,16.0,-999,-99.99,,,-99.99,,2013-02-27 19:22:00,
2013-02-27 14:32:00,53.0,-99.9,29.74,West,260,11.0,14.0,-999,-99.99,,,-99.99,,2013-02-27 19:32:00,
2013-02-27 14:42:00,53.0,-99.9,29.74,WSW,249,10.0,13.0,-999,-99.99,,,-99.99,,2013-02-27 19:42:00,
2013-02-27 14:52:00,53.0,-99.9,29.75,WSW,247,12.0,15.0,-999,-99.99,,,-99.99,,2013-02-27 19:52:00,
2013-02-27 15:02:00,53.0,-99.9,29.75,WSW,249,11.0,15.0,-999,-99.99,,,-99.99,,2013-02-27 20:02:00,
2013-02-27 15:12:00,53.0,-99.9,29.74,WSW,250,10.0,14.0,-999,-99.99,,,-99.99,,2013-02-27 20:12:00,
2013-02-27 15:22:00,54.0,-99.9,29.74,WSW,252,10.0,13.0,-999,-99.99,,,-99.99,,2013-02-27 20:22:00,
2013-02-27 15:32:00,54.0,-99.9,29.74,SW,235,11.0,14.0,-999,-99.99,,,-99.99,,2013-02-27 20:32:00,
2013-02-27 15:42:00,54.0,-99.9,29.75,SW,225,11.0,14.0,-999,-99.99,,,-99.99,,2013-02-27 20:42:00,
2013-02-27 15:53:00,54.0,-99.9,29.75,SW,217,7.0,13.0,-999,-99.99,,,-99.99,,2013-02-27 20:53:00,
2013-02-27 16:02:00,54.0,-99.9,29.75,SW,220,7.0,9.0,-999,-99.99,,,-99.99,,2013-02-27 21:02:00,
2013-02-27 16:12:00,54.0,-99.9,29.75,SSW,207,5.0,10.0,-999,-99.99,,,-99.99,,2013-02-27 21:12:00,
2013-02-27 16:22:00,53.0,-99.9,29.74,SSW,208,8.0,12.0,-999,-99.99,,,-99.99,,2013-02-27 21:22:00,
2013-02-27 16:32:00,53.0,-99.9,29.74,SSW,210,9.0,11.0,-999,-99.99,,,-99.99,,2013-02-27 21:32:00,
2013-02-27 16:42:00,53.0,-99.9,29.75,SSW,212,7.0,12.0,-999,-99.99,,,-99.99,,2013-02-27 21:42:00,
2013-02-27 16:52:00,53.0,-99.9,29.74,SSW,213,7.0,11.0,-999,-99.99,,,-99.99,,2013-02-27 21:52:00,
2013-02-27 17:02:00,53.0,-99.9,29.74,SSW,208,10.0,13.0,-999,-99.99,,,-99.99,,2013-02-27 22:02:00,
2013-02-27 17:12:00,52.0,-99.9,29.74,SSW,210,9.0,11.0,-999,-99.99,,,-99.99,,2013-02-27 22:12:00,
2013-02-27 17:22:00,53.0,-99.9,29.74,SSW,213,6.0,10.0,-999,-99.99,,,-99.99,,2013-02-27 22:22:00,
2013-02-27 17:32:00,52.0,-99.9,29.75,SW,216,8.0,11.0,-999,-99.99,,,-99.99,,2013-02-27 22:32:00,
2013-02-27 17:42:00,52.0,-99.9,29.75,SW,221,7.0,11.0,-999,-99.99,,,-99.99,,2013-02-27 22:42:00,
2013-02-27 17:52:00,52.0,-99.9,29.75,SW,220,8.0,12.0,-999,-99.99,,,-99.99,,2013-02-27 22:52:00,
2013-02-27 18:02:00,52.0,-99.9,29.75,SSW,211,10.0,15.0,-999,-99.99,,,-99.99,,2013-02-27 23:02:00,
2013-02-27 18:12:00,52.0,-99.9,29.75,SSW,209,10.0,12.0,-999,-99.99,,,-99.99,,2013-02-27 23:12:00,
2013-02-27 18:22:00,52.0,-99.9,29.75,SSW,213,9.0,13.0,-999,-99.99,,,-99.99,,2013-02-27 23:22:00,
2013-02-27 18:32:00,51.0,-99.9,29.75,SSW,211,10.0,13.0,-999,-99.99,,,-99.99,,2013-02-27 23:32:00,
2013-02-27 18:42:00,51.0,-99.9,29.75,SSW,212,9.0,15.0,-999,-99.99,,,-99.99,,2013-02-27 23:42:00,
2013-02-27 18:53:00,52.0,-99.9,29.75,SW,215,9.0,13.0,-999,-99.99,,,-99.99,,2013-02-27 23:53:00,
2013-02-27 19:02:00,51.0,-99.9,29.75,SSW,205,8.0,12.0,-999,-99.99,,,-99.99,,2013-02-28 00:02:00,
2013-02-27 19:13:00,51.0,-99.9,29.75,SW,216,9.0,13.0,-999,-99.99,,,-99.99,,2013-02-28 00:13:00,
2013-02-27 19:22:00,51.0,-99.9,29.75,SW,222,8.0,13.0,-999,-99.99,,,-99.99,,2013-02-28 00:22:00,
2013-02-27 19:32:00,51.0,-99.9,29.75,SW,223,8.0,12.0,-999,-99.99,,,-99.99,,2013-02-28 00:32:00,
2013-02-27 19:42:00,51.0,-99.9,29.75,SW,219,7.0,11.0,-999,-99.99,,,-99.99,,2013-02-28 00:42:00,
2013-02-27 19:52:00,51.0,-99.9,29.74,SW,223,9.0,12.0,-999,-99.99,,,-99.99,,2013-02-28 00:52:00,
2013-02-27 20:01:00,51.0,-99.9,29.74,SW,225,10.0,12.0,-999,-99.99,,,-99.99,,2013-02-28 01:01:00,
2013-02-27 20:11:00,51.0,-99.9,29.74,SW,230,10.0,13.0,-999,-99.99,,,-99.99,,2013-02-28 01:11:00,
2013-02-27 20:22:00,51.0,-99.9,29.74,SW,232,10.0,14.0,-999,-99.99,,,-99.99,,2013-02-28 01:22:00,
2013-02-27 20:32:00,51.0,-99.9,29.74,SW,234,11.0,15.0,-999,-99.99,,,-99.99,,2013-02-28 01:32:00,
2013-02-27 20:42:00,51.0,-99.9,29.75,SW,235,12.0,15.0,-999,-99.99,,,-99.99,,2013-02-28 01:42:00,
2013-02-27 20:52:00,51.0,-99.9,29.75,WSW,239,9.0,14.0,-999,-99.99,,,-99.99,,2013-02-28 01:52:00,
2013-02-27 21:01:00,51.0,-99.9,29.74,WSW,237,11.0,15.0,-999,-99.99,,,-99.99,,2013-02-28 02:01:00,
2013-02-27 21:11:00,51.0,-99.9,29.74,SW,235,11.0,15.0,-999,-99.99,,,-99.99,,2013-02-28 02:11:00,
2013-02-27 21:22:00,51.0,-99.9,29.75,SW,232,11.0,15.0,-999,-99.99,,,-99.99,,2013-02-28 02:22:00,
2013-02-27 21:32:00,51.0,-99.9,29.75,SW,232,10.0,14.0,-999,-99.99,,,-99.99,,2013-02-28 02:32:00,
2013-02-27 21:42:00,51.0,-99.9,29.75,SW,232,10.0,14.0,-999,-99.99,,,-99.99,,2013-02-28 02:42:00,
2013-02-27 21:52:00,51.0,-99.9,29.75,SW,232,10.0,14.0,-999,-99.99,,,-99.99,,2013-02-28 02:52:00,
2013-02-27 22:02:00,51.0,-99.9,29.75,SW,230,10.0,13.0,-999,-99.99,,,-99.99,,2013-02-28 03:02:00,
2013-02-27 22:11:00,51.0,-99.9,29.75,SW,231,11.0,14.0,-999,-99.99,,,-99.99,,2013-02-28 03:11:00,
2013-02-27 22:22:00,51.0,-99.9,29.75,SW,232,9.0,14.0,-999,-99.99,,,-99.99,,2013-02-28 03:22:00,
2013-02-27 22:32:00,51.0,-99.9,29.75,SW,230,11.0,16.0,-999,-99.99,,,-99.99,,2013-02-28 03:32:00,
2013-02-27 22:42:00,51.0,-99.9,29.74,SW,230,11.0,14.0,-999,-99.99,,,-99.99,,2013-02-28 03:42:00,
2013-02-27 22:52:00,51.0,-99.9,29.74,SW,227,10.0,14.0,-999,-99.99,,,-99.99,,2013-02-28 03:52:00,
2013-02-27 23:02:00,51.0,-99.9,29.74,SW,228,10.0,14.0,-999,-99.99,,,-99.99,,2013-02-28 04:02:00,
2013-02-27 23:11:00,51.0,-99.9,29.74,SW,229,9.0,14.0,-999,-99.99,,,-99.99,,2013-02-28 04:11:00,
2013-02-27 23:22:00,51.0,-99.9,29.74,SW,229,11.0,15.0,-999,-99.99,,,-99.99,,2013-02-28 04:22:00,
2013-02-27 23:32:00,51.0,-99.9,29.74,SW,226,10.0,14.0,-999,-99.99,,,-99.99,,2013-02-28 04:32:00,
2013-02-27 23:42:00,51.0,-99.9,29.73,SW,232,11.0,14.0,-999,-99.99,,,-99.99,,2013-02-28 04:42:00,
2013-02-27 23:52:00,51.0,-99.9,29.73,SW,231,9.0,13.0,-999,-99.99,,,-99.99,,2013-02-28 04:52:00,